When you browse on this site, cookies collect data to enhance your experience and personalize the content and advertising you see.
Visit our Privacy Policy to learn more. By continuing to use the site, you agree to this use of cookies and data.
  • In Schweiz
  • Länderverzeichnis
  • Für 7 Tage
  • Wassertemperatur
  • Wetterkarte
  • Widgets
  • user-avatar
    Anmelden

    Stündliche Wetter Bridgetown

    Heute, 14 Oktober, Montag

    Zeit Temperatur Niederschläge Wind Luftdruck Luftfeuchtigkeit
    00:00 +29°C° 0.3 mm 7 m/S 758 mmHg 81%
    01:00 +29°C° 0.3 mm 7 m/S 758 mmHg 81%
    02:00 +29°C° 0 mm 7 m/S 757 mmHg 81%
    03:00 +29°C° 0 mm 7 m/S 758 mmHg 81%
    04:00 +29°C° 0 mm 7 m/S 758 mmHg 81%
    05:00 +29°C° 0 mm 7 m/S 758 mmHg 80%
    06:00 +29°C° 0 mm 7 m/S 758 mmHg 78%
    07:00 +29°C° 0 mm 7 m/S 759 mmHg 76%
    08:00 +30°C° 0 mm 7 m/S 760 mmHg 73%
    09:00 +30°C° 0 mm 7 m/S 760 mmHg 72%
    10:00 +30°C° 0 mm 7 m/S 760 mmHg 71%
    11:00 +32°C° 0 mm 6 m/S 760 mmHg 69%
    12:00 +32°C° 0 mm 6 m/S 759 mmHg 69%
    13:00 +32°C° 0 mm 6 m/S 759 mmHg 69%
    14:00 +32°C° 0 mm 6 m/S 758 mmHg 69%
    15:00 +32°C° 0 mm 6 m/S 758 mmHg 71%
    16:00 +30°C° 0 mm 6 m/S 758 mmHg 73%
    17:00 +30°C° 0 mm 7 m/S 758 mmHg 75%
    18:00 +30°C° 0 mm 7 m/S 759 mmHg 76%
    19:00 +30°C° 0 mm 7 m/S 759 mmHg 77%
    20:00 +29°C° 0 mm 7 m/S 760 mmHg 78%
    21:00 +29°C° 0 mm 7 m/S 760 mmHg 78%
    22:00 +29°C° 0 mm 7 m/S 760 mmHg 78%
    23:00 +29°C° 0 mm 7 m/S 760 mmHg 79%

    Morgen, 15 Oktober, Dienstag

    Zeit Temperatur Niederschläge Wind Luftdruck Luftfeuchtigkeit
    00:00 +29°C° 0.1 mm 6 m/S 759 mmHg 80%
    01:00 +29°C° 0.1 mm 6 m/S 759 mmHg 82%
    02:00 +29°C° 0.1 mm 6 m/S 758 mmHg 84%
    03:00 +29°C° 0.1 mm 6 m/S 758 mmHg 82%
    04:00 +29°C° 0.1 mm 6 m/S 758 mmHg 81%
    05:00 +29°C° 0.1 mm 6 m/S 758 mmHg 80%
    06:00 +29°C° 0 mm 6 m/S 758 mmHg 78%
    07:00 +30°C° 0 mm 6 m/S 759 mmHg 76%
    08:00 +30°C° 0 mm 6 m/S 759 mmHg 74%
    09:00 +30°C° 0.1 mm 6 m/S 759 mmHg 74%
    10:00 +32°C° 0.1 mm 6 m/S 759 mmHg 73%
    11:00 +32°C° 0.1 mm 6 m/S 760 mmHg 73%
    12:00 +32°C° 0.4 mm 6 m/S 759 mmHg 73%
    13:00 +32°C° 0.4 mm 6 m/S 758 mmHg 73%
    14:00 +32°C° 0.4 mm 6 m/S 758 mmHg 73%
    15:00 +32°C° 0.3 mm 6 m/S 758 mmHg 73%
    16:00 +32°C° 0.3 mm 6 m/S 758 mmHg 73%
    17:00 +30°C° 0.3 mm 5 m/S 758 mmHg 73%
    18:00 +30°C° 0 mm 6 m/S 758 mmHg 75%
    19:00 +30°C° 0 mm 6 m/S 758 mmHg 77%
    20:00 +29°C° 0 mm 6 m/S 759 mmHg 79%
    21:00 +29°C° 0 mm 5 m/S 759 mmHg 79%
    22:00 +29°C° 0 mm 5 m/S 759 mmHg 80%
    23:00 +29°C° 0 mm 5 m/S 759 mmHg 80%

    übermorgen, 16 Oktober, Mittwoch

    Zeit Temperatur Niederschläge Wind Luftdruck Luftfeuchtigkeit
    00:00 +29°C° 0 mm 5 m/S 758 mmHg 81%
    01:00 +29°C° 0 mm 5 m/S 758 mmHg 81%
    02:00 +29°C° 0 mm 4 m/S 758 mmHg 82%
    03:00 +29°C° 0.1 mm 4 m/S 758 mmHg 82%
    04:00 +29°C° 0.1 mm 4 m/S 758 mmHg 82%
    05:00 +29°C° 0.1 mm 4 m/S 758 mmHg 82%
    06:00 +29°C° 0.6 mm 4 m/S 758 mmHg 80%
    07:00 +30°C° 0.6 mm 4 m/S 759 mmHg 78%
    08:00 +30°C° 0.6 mm 5 m/S 759 mmHg 76%
    09:00 +32°C° 0 mm 4 m/S 759 mmHg 74%
    10:00 +32°C° 0 mm 4 m/S 759 mmHg 72%
    11:00 +33°C° 0 mm 3 m/S 759 mmHg 70%
    12:00 +33°C° 0.4 mm 3 m/S 759 mmHg 70%
    13:00 +33°C° 0.4 mm 3 m/S 758 mmHg 70%
    14:00 +33°C° 0.4 mm 3 m/S 757 mmHg 70%
    15:00 +31°C° 1 mm 3 m/S 757 mmHg 71%
    16:00 +31°C° 1 mm 3 m/S 757 mmHg 73%
    17:00 +30°C° 1 mm 3 m/S 757 mmHg 75%
    18:00 +30°C° 0.9 mm 3 m/S 758 mmHg 76%
    19:00 +30°C° 0.9 mm 4 m/S 758 mmHg 77%
    20:00 +30°C° 0.9 mm 4 m/S 758 mmHg 78%
    21:00 +30°C° 0 mm 4 m/S 758 mmHg 78%
    22:00 +29°C° 0 mm 4 m/S 758 mmHg 78%
    23:00 +29°C° 0 mm 4 m/S 758 mmHg 79%

    17 Oktober, Donnerstag

    Zeit Temperatur Niederschläge Wind Luftdruck Luftfeuchtigkeit
    00:00 +29°C° 0 mm 5 m/S 758 mmHg 80%
    01:00 +29°C° 0 mm 5 m/S 758 mmHg 81%
    02:00 +29°C° 0 mm 5 m/S 757 mmHg 82%
    03:00 +29°C° 0.1 mm 4 m/S 757 mmHg 81%
    04:00 +28°C° 0.1 mm 4 m/S 758 mmHg 81%
    05:00 +28°C° 0.1 mm 4 m/S 758 mmHg 80%
    06:00 +29°C° 0 mm 4 m/S 758 mmHg 77%
    07:00 +30°C° 0 mm 4 m/S 758 mmHg 75%
    08:00 +30°C° 0 mm 4 m/S 759 mmHg 72%
    09:00 +32°C° 0 mm 4 m/S 759 mmHg 71%
    10:00 +32°C° 0 mm 5 m/S 759 mmHg 69%
    11:00 +32°C° 0 mm 5 m/S 759 mmHg 68%
    12:00 +32°C° 0 mm 4 m/S 759 mmHg 68%
    13:00 +32°C° 0 mm 4 m/S 758 mmHg 69%
    14:00 +32°C° 0 mm 4 m/S 757 mmHg 69%
    15:00 +32°C° 0 mm 4 m/S 757 mmHg 71%
    16:00 +32°C° 0 mm 4 m/S 757 mmHg 73%
    17:00 +30°C° 0 mm 4 m/S 757 mmHg 75%
    18:00 +30°C° 0 mm 4 m/S 758 mmHg 76%
    19:00 +30°C° 0 mm 4 m/S 758 mmHg 76%
    20:00 +30°C° 0 mm 4 m/S 758 mmHg 77%
    21:00 +30°C° 0 mm 4 m/S 758 mmHg 78%
    22:00 +29°C° 0 mm 4 m/S 758 mmHg 78%
    23:00 +29°C° 0 mm 4 m/S 759 mmHg 79%

    18 Oktober, Freitag

    Zeit Temperatur Niederschläge Wind Luftdruck Luftfeuchtigkeit
    00:00 +29°C° 0 mm 5 m/S 758 mmHg 80%
    01:00 +29°C° 0 mm 5 m/S 758 mmHg 81%
    02:00 +29°C° 0 mm 5 m/S 757 mmHg 83%
    03:00 +29°C° 0.1 mm 4 m/S 757 mmHg 82%
    04:00 +29°C° 0.1 mm 4 m/S 757 mmHg 81%
    05:00 +29°C° 0.1 mm 4 m/S 757 mmHg 81%
    06:00 +29°C° 0 mm 4 m/S 758 mmHg 79%
    07:00 +30°C° 0 mm 4 m/S 758 mmHg 77%
    08:00 +30°C° 0 mm 4 m/S 759 mmHg 75%
    09:00 +32°C° 0 mm 4 m/S 759 mmHg 73%
    10:00 +32°C° 0 mm 5 m/S 759 mmHg 71%
    11:00 +32°C° 0 mm 5 m/S 759 mmHg 69%
    12:00 +32°C° 0 mm 5 m/S 759 mmHg 69%
    13:00 +32°C° 0 mm 5 m/S 758 mmHg 70%
    14:00 +32°C° 0 mm 5 m/S 757 mmHg 70%
    15:00 +32°C° 0.4 mm 5 m/S 757 mmHg 70%
    16:00 +32°C° 0.4 mm 6 m/S 757 mmHg 71%
    17:00 +30°C° 0.4 mm 6 m/S 757 mmHg 72%
    18:00 +30°C° 0.1 mm 6 m/S 758 mmHg 73%
    19:00 +30°C° 0.1 mm 6 m/S 758 mmHg 75%
    20:00 +30°C° 0.1 mm 6 m/S 759 mmHg 76%
    21:00 +30°C° 0 mm 5 m/S 759 mmHg 77%
    22:00 +30°C° 0 mm 5 m/S 759 mmHg 77%
    23:00 +30°C° 0 mm 5 m/S 759 mmHg 78%

    19 Oktober, Samstag

    Zeit Temperatur Niederschläge Wind Luftdruck Luftfeuchtigkeit
    00:00 +30°C° 0.2 mm 5 m/S 758 mmHg 79%
    01:00 +29°C° 0.2 mm 4 m/S 758 mmHg 79%
    02:00 +29°C° 0.2 mm 4 m/S 758 mmHg 80%
    03:00 +29°C° 1.1 mm 5 m/S 758 mmHg 80%
    04:00 +29°C° 1.1 mm 5 m/S 758 mmHg 80%
    05:00 +29°C° 1.1 mm 5 m/S 758 mmHg 79%
    06:00 +29°C° 0.8 mm 6 m/S 758 mmHg 78%
    07:00 +29°C° 0.8 mm 6 m/S 759 mmHg 77%
    08:00 +29°C° 0.8 mm 7 m/S 759 mmHg 76%
    09:00 +30°C° 0.1 mm 7 m/S 759 mmHg 75%
    10:00 +30°C° 0.1 mm 6 m/S 759 mmHg 74%
    11:00 +32°C° 0.1 mm 6 m/S 759 mmHg 74%
    12:00 +32°C° 0 mm 6 m/S 759 mmHg 74%
    13:00 +32°C° 0 mm 6 m/S 758 mmHg 74%
    14:00 +32°C° 0 mm 6 m/S 758 mmHg 74%
    15:00 +32°C° 0 mm 6 m/S 758 mmHg 75%
    16:00 +30°C° 0 mm 6 m/S 758 mmHg 76%
    17:00 +30°C° 0 mm 6 m/S 758 mmHg 77%
    18:00 +30°C° 0 mm 6 m/S 758 mmHg 79%
    19:00 +30°C° 0 mm 6 m/S 758 mmHg 81%
    20:00 +29°C° 0 mm 6 m/S 759 mmHg 82%
    21:00 +29°C° 0.1 mm 7 m/S 759 mmHg 81%
    22:00 +29°C° 0.1 mm 7 m/S 759 mmHg 80%
    23:00 +29°C° 0.1 mm 7 m/S 759 mmHg 80%
    Mehr zeigen